Regional Weather Roundup
Issued by NWS Wilmington, NC

Home | Current Version | Previous Version | Text Only | Print | Product List | Glossary On
Versions: 1 2 3 4 5 6 7 8 9 10 11 12 13 14 15 16 17 18 19 20 21 22 23 24 25 26 27 28 29 30 31 32 33 34 35 36 37 38 39 40 41 42 43 44 45 46 47 48 49 50
000
ASUS42 KILM 310310
RWRILM
RWRILM
REGIONAL HOURLY WEATHER ROUNDUP
NATIONAL WEATHER SERVICE WILMINGTON NC
1100 PM EDT SAT AUG 30 2014

NOTE: "FAIR" INDICATES FEW OR NO CLOUDS BELOW 12,000 FEET WITH NO
SIGNIFICANT WEATHER AND/OR OBSTRUCTIONS TO VISIBILITY.

...............WFO WILMINGTON COUNTY WARNING AREA...............

......COASTAL NC AND SC COUNTIES......

CITY           SKY/WX    TMP DP  RH WIND       PRES   REMARKS
WILMINGTON     CLEAR     74  71  91 CALM      30.18R
SOUTHPORT      CLEAR     76  71  86 CALM      30.18R
N MYRTLE BEACH PTCLDY    81  74  79 S6        30.17R
MYRTLE BEACH   MOCLDY    82  73  74 SE8       30.17R

......INLAND NC AND SC COUNTIES.......

CITY           SKY/WX    TMP DP  RH WIND       PRES   REMARKS
LUMBERTON      CLEAR     77  73  87 CALM      30.17R
ELIZABETHTOWN  CLEAR     75  74  95 CALM      30.18R
WHITEVILLE     CLEAR     74  72  92 CALM      30.17S
FLORENCE       CLEAR     77  72  84 S6        30.16S
DARLINGTON     CLEAR     79  70  73 S5        30.18R

....................REST OF NORTH CAROLINA......................

.........EASTERN NC.........

CITY           SKY/WX    TMP DP  RH WIND       PRES   REMARKS
CAPE HATTERAS  NOT AVBL
JACKSONVILLE   CLEAR     72  70  94 CALM      30.19S
MOREHEAD CITY  CLEAR     80  73  79 S3        30.19R
KENANSVILLE    CLEAR     74  71  91 CALM      30.19R
NEW BERN       LGT RAIN  75  72  90 CALM      30.20R
ELIZABETH CITY CLEAR     77  74  90 S6        30.18R

.........CENTRAL NC.........

CITY           SKY/WX    TMP DP  RH WIND       PRES   REMARKS
RALEIGH DURHAM MOCLDY    78  71  79 S5        30.17R
ROCKY MOUNT    CLOUDY    78  72  81 SE5       30.17R
ROANOKE RAPIDS NOT AVBL
FAYETTEVILLE   PTCLDY    78  73  84 S7        30.17R
HOFFMAN        MOCLDY    78  72  79 S9        30.18R

.........WESTERN NC.........

CITY           SKY/WX    TMP DP  RH WIND       PRES   REMARKS
CHARLOTTE      MOCLDY    78  63  59 S8        30.17R
GREENSBORO     PTCLDY    78  71  79 S9        30.17R
HICKORY        NOT AVBL
BOONE          NOT AVBL
ASHEVILLE      NOT AVBL

.....................REST OF SOUTH CAROLINA.....................

.........EASTERN SC.........

CITY           SKY/WX    TMP DP  RH WIND       PRES   REMARKS
CHARLESTON     PTCLDY    81  75  82 E5        30.15S
BEAUFORT MCAS  CLEAR     80  75  84 CALM      30.15R
HILTON HEAD    NOT AVBL

.........CENTRAL SC.........

CITY           SKY/WX    TMP DP  RH WIND       PRES   REMARKS
COLUMBIA       PTCLDY    83  70  64 SE6       30.15R
ORANGEBURG     CLEAR     78  71  79 S5        30.16R
SUMTER SHAW    CLEAR     78  73  83 S2        30.16R

.........WESTERN SC.........

CITY           SKY/WX    TMP DP  RH WIND       PRES   REMARKS
GREENVILLE     NOT AVBL
ROCK HILL      PTCLDY    80  65  59 S6        30.17R
ANDERSON       CLOUDY    79  72  79 CALM      30.13F
CLEMSON        NOT AVBL
GREENWOOD      LGT RAIN  80  70  71 CALM      30.16R


...................COASTAL AND OFFSHORE REPORTS..................

................LOCAL PIERS AND NC RESERVE................


STATION/POSITION TIME  SKY/WX   TEMP    WIND        PRES    VSBY
                                AIR SEA DIR/SP/G
                 (UTC)          (F)     (DEG/KT/KT) (MB)    (MI)
JOHNY MRCER PIER 0300            81 84  150/  9/ 10 1021.4R
NC RESRV MASNBRO 0200            80     160/  3     1021.0S
OCEAN CREST PIER 0300            82 84  120/  9/ 11 1020.8S
SPRINGMAID  PIER 0300            82 84  150/  7/  8 1021.6R


................COASTAL AND OFFSHORE BUOYS................


STATION/POSITION TIME  SKY/WX   TEMP    WIND        PRES    VSBY
                                AIR SEA DIR/SP/G
                 (UTC)          (F)     (DEG/KT/KT) (MB)    (MI)
DIMNDSHOAL 41025 0300            80     150/ 12/ 14 1022.0R
WVE H/P(F/S)=  3/ 8 WND WVE H/P(F/S)=  2/ 5 SWL H/P/D(F/S/D)=  3/110/ 8

CAPE LOOKOUT     0200            81     150/  7/  8 1021.8R
ONSLOW BAY 41036 0300            82 83  170/ 10/ 12 1022.3R
WVE H/P(F/S)=  2/ 8 WND WVE H/P(F/S)=  2/ 3 SWL H/P/D(F/S/D)=  2/130/ 8

5 WRITEBCH 41038 0300            78 82  170/  8/ 10   N/A
MASONBORO  41110 0300               82                N/A
WVE H/P(F/S)=  2/ 8 WND WVE H/P(F/S)=  2/ 8

WILM HARBR 41108 0300               83                N/A
WVE H/P(F/S)=  2/ 8 WND WVE H/P(F/S)=  2/ 8

27WRITEBCH 41037 NOT AVBL
FRYING PAN 41013 NOT AVBL
SUNST NRSH 41024 0200            82     160/ 10/ 12 1021.0R
CAPRS NRSH 41029 NOT AVBL
EDISTO     41004 0300            83 83  130/ 10/ 12 1020.5R
WVE H/P(F/S)=  3/ 8 WND WVE H/P(F/S)=  2/ 4 SWL H/P/D(F/S/D)=  2/ 8



..........OFFSHORE BUOYS BEYOND 100 NM OFFSHORE...........
.....IN A TRIANGLE---HAT TO BERMUDA TO BAHAMAS TO HAT.....


STATION/POSITION TIME  SKY/WX   TEMP    WIND        PRES    VSBY
                                AIR SEA DIR/SP/G
                 (UTC)          (F)     (DEG/KT/KT) (MB)    (MI)
150E HAT   41001 NOT AVBL
W BERMUDA  41048 0230            80 79   70/ 10/ 12 1022.4F
WVE H/P(F/S)=  4/ 9 WND WVE H/P(F/S)=  2/ 5 SWL H/P/D(F/S/D)=  3/120/ 9

ATLANTIC S 41049 0206            84 86   60/  4/  6 1021.1R
WVE H/P(F/S)=  4/ 8 WND WVE H/P(F/S)=  2/ 4 SWL H/P/D(F/S/D)=  3/350/ 8

E BAHAMAS  41046 0205            83 84   90/ 10/ 12 1019.5
WVE H/P(F/S)=  4/ 9 WND WVE H/P(F/S)=  2/ 5 SWL H/P/D(F/S/D)=  3/ 40/ 9

NE BAHAMAS 41047 0208            81 85  110/  4/  6 1021.4S
WVE H/P(F/S)=  4/ 7 WND WVE H/P(F/S)=  2/ 4 SWL H/P/D(F/S/D)=  3/110/ 7

120E CANVRL41010 0300            83 85  140/  6/  8 1021.0R
WVE H/P(F/S)=  4/10 WND WVE H/P(F/S)=  2/ 4 SWL H/P/D(F/S/D)=  3/110/10


END


USA.gov is the U.S. government's official web portal to all federal, state and local government web resources and services.